Location: Beverley
(50.2667°N, 107.9667°W)
Time: 00:29:37
(UTC+00:00)

Envisat - Pass Details

Date: 24 January 2022
Orbit: 764 x 765 km, 98.2° (Epoch: 22 May)

Event Time Altitude Azimuth Distance (km) Brightness Sun altitude
Rises 10:32:35 0° 31° (NNE) 3,242 6.8 -41.5°
Reaches altitude 10° 10:36:29 10° 61° (ENE) 2,309 6.1 -40.9°
Maximum altitude 10:38:29 12° 85° (E) 2,154 5.9 -40.6°
Drops below altitude 10° 10:40:29 10° 108° (ESE) 2,302 5.9 -40.3°
Sets 10:44:21 0° 138° (SE) 3,222 6.5 -39.8°
